Time,TemperatureF,DewpointF,PressureIn,WindDirection,WindDirectionDegrees,WindSpeedMPH,WindSpeedGustMPH,Humidity,HourlyPrecipIn,Conditions,Clouds,dailyrainin,SoftwareType,DateUTC
2013-05-07 06:15:00,65.4,62.1,30.00,WNW,292,1.0,3.0,89,0.00,,,0.00,VWS V14.01,2013-05-07 10:15:00,
2013-05-07 06:42:00,65.4,61.8,30.01,NW,313,3.0,3.0,88,0.00,,,0.00,VWS V14.01,2013-05-07 10:42:00,
2013-05-07 06:47:00,65.5,61.9,30.01,NW,309,2.0,2.0,88,0.00,,,0.00,VWS V14.01,2013-05-07 10:47:00,
2013-05-07 06:52:00,65.5,61.9,30.01,WNW,284,3.0,4.0,88,0.00,,,0.00,VWS V14.01,2013-05-07 10:52:00,
2013-05-07 06:57:00,65.5,61.9,30.01,NW,312,4.0,7.0,88,0.00,,,0.00,VWS V14.01,2013-05-07 10:57:00,
2013-05-07 07:02:00,65.5,61.9,30.01,NW,306,2.0,4.0,88,0.00,,,0.00,VWS V14.01,2013-05-07 11:02:00,
2013-05-07 07:07:00,65.6,62.0,30.02,NNW,340,4.0,4.0,88,0.00,,,0.00,VWS V14.01,2013-05-07 11:07:00,
2013-05-07 07:12:00,65.7,62.0,30.02,NW,307,3.0,5.0,88,0.00,,,0.00,VWS V14.01,2013-05-07 11:12:00,
2013-05-07 07:17:00,65.9,62.2,30.02,WNW,302,4.0,5.0,88,0.00,,,0.00,VWS V14.01,2013-05-07 11:17:00,
2013-05-07 07:22:00,66.0,62.0,30.02,NNW,333,7.0,7.0,87,0.00,,,0.00,VWS V14.01,2013-05-07 11:22:00,
2013-05-07 07:27:00,66.2,62.2,30.02,WNW,286,3.0,8.0,87,0.00,,,0.00,VWS V14.01,2013-05-07 11:27:00,
2013-05-07 07:32:00,66.4,62.1,30.02,NNW,336,3.0,8.0,86,0.00,,,0.00,VWS V14.01,2013-05-07 11:32:00,
2013-05-07 07:37:00,66.5,61.9,30.03,North,360,3.0,8.0,85,0.00,,,0.00,VWS V14.01,2013-05-07 11:37:00,
2013-05-07 07:42:00,66.7,62.0,30.03,NNW,347,5.0,8.0,85,0.00,,,0.00,VWS V14.01,2013-05-07 11:42:00,
2013-05-07 07:47:00,67.0,62.3,30.03,NNW,348,3.0,6.0,85,0.00,,,0.00,VWS V14.01,2013-05-07 11:47:00,
2013-05-07 07:52:00,67.2,62.2,30.03,NW,325,3.0,6.0,84,0.00,,,0.00,VWS V14.01,2013-05-07 11:52:00,
2013-05-07 07:57:00,67.4,62.4,30.04,NW,323,4.0,6.0,84,0.00,,,0.00,VWS V14.01,2013-05-07 11:57:00,
2013-05-07 08:02:00,67.6,62.3,30.04,NW,320,4.0,5.0,83,0.00,,,0.00,VWS V14.01,2013-05-07 12:02:00,
2013-05-07 08:07:00,67.9,62.2,30.04,NNW,333,2.0,6.0,82,0.00,,,0.00,VWS V14.01,2013-05-07 12:07:00,
2013-05-07 08:12:00,68.0,62.3,30.04,North,349,2.0,6.0,82,0.00,,,0.00,VWS V14.01,2013-05-07 12:12:00,
2013-05-07 08:17:00,68.3,62.2,30.04,North,350,2.0,4.0,81,0.00,,,0.00,VWS V14.01,2013-05-07 12:17:00,
2013-05-07 08:22:00,68.6,62.2,30.04,NNW,342,2.0,6.0,80,0.00,,,0.00,VWS V14.01,2013-05-07 12:22:00,
2013-05-07 08:27:00,68.8,62.4,30.04,NW,309,6.0,7.0,80,0.00,,,0.00,VWS V14.01,2013-05-07 12:27:00,
2013-05-07 08:32:00,68.8,62.0,30.04,NNW,332,3.0,4.0,79,0.00,,,0.00,VWS V14.01,2013-05-07 12:32:00,
2013-05-07 08:37:00,69.0,62.2,30.05,North,351,2.0,6.0,79,0.00,,,0.00,VWS V14.01,2013-05-07 12:37:00,
2013-05-07 08:42:00,69.2,62.1,30.05,North,5,5.0,7.0,78,0.00,,,0.00,VWS V14.01,2013-05-07 12:42:00,
2013-05-07 08:47:00,69.4,62.2,30.05,NW,323,5.0,5.0,78,0.00,,,0.00,VWS V14.01,2013-05-07 12:47:00,
2013-05-07 08:52:00,69.7,62.2,30.05,NNW,346,6.0,6.0,77,0.00,,,0.00,VWS V14.01,2013-05-07 12:52:00,
2013-05-07 08:57:00,69.7,61.4,30.05,WNW,299,4.0,9.0,75,0.00,,,0.00,VWS V14.01,2013-05-07 12:57:00,
2013-05-07 09:02:00,69.9,62.0,30.05,North,360,3.0,6.0,76,0.00,,,0.00,VWS V14.01,2013-05-07 13:02:00,
2013-05-07 09:07:00,70.1,61.8,30.05,NW,326,4.0,7.0,75,0.00,,,0.00,VWS V14.01,2013-05-07 13:07:00,
2013-05-07 09:12:00,70.3,62.0,30.06,NW,321,5.0,7.0,75,0.00,,,0.00,VWS V14.01,2013-05-07 13:12:00,
2013-05-07 09:17:00,70.6,61.9,30.06,NW,308,4.0,5.0,74,0.00,,,0.00,VWS V14.01,2013-05-07 13:17:00,
2013-05-07 09:22:00,70.6,61.9,30.06,NW,320,2.0,8.0,74,0.00,,,0.00,VWS V14.01,2013-05-07 13:22:00,
2013-05-07 09:27:00,70.8,62.1,30.06,NNW,346,2.0,8.0,74,0.00,,,0.00,VWS V14.01,2013-05-07 13:27:00,
2013-05-07 09:32:00,71.1,62.4,30.06,West,269,4.0,5.0,74,0.00,,,0.00,VWS V14.01,2013-05-07 13:32:00,
2013-05-07 09:36:00,71.1,62.0,30.06,NW,323,4.0,7.0,73,0.00,,,0.00,VWS V14.01,2013-05-07 13:36:00,
2013-05-07 09:41:00,71.5,62.4,30.06,WNW,285,3.0,7.0,73,0.00,,,0.00,VWS V14.01,2013-05-07 13:41:00,
2013-05-07 09:46:00,71.8,62.7,30.06,NW,323,8.0,8.0,73,0.00,,,0.00,VWS V14.01,2013-05-07 13:46:00,
2013-05-07 09:51:00,72.2,62.3,30.06,NW,309,6.0,9.0,71,0.00,,,0.00,VWS V14.01,2013-05-07 13:51:00,
2013-05-07 09:57:00,72.2,61.9,30.06,NNW,344,2.0,9.0,70,0.00,,,0.00,VWS V14.01,2013-05-07 13:57:00,
2013-05-07 10:02:00,72.6,62.3,30.06,WSW,254,3.0,5.0,70,0.00,,,0.00,VWS V14.01,2013-05-07 14:02:00,
2013-05-07 10:07:00,72.3,61.6,30.06,WNW,300,2.0,8.0,69,0.00,,,0.00,VWS V14.01,2013-05-07 14:07:00,
2013-05-07 10:12:00,72.8,62.5,30.06,WSW,258,2.0,8.0,70,0.00,,,0.00,VWS V14.01,2013-05-07 14:12:00,
2013-05-07 10:17:00,72.8,62.0,30.06,WSW,257,1.0,5.0,69,0.00,,,0.00,VWS V14.01,2013-05-07 14:17:00,
2013-05-07 10:22:00,73.0,62.2,30.06,WSW,239,8.0,8.0,69,0.00,,,0.00,VWS V14.01,2013-05-07 14:22:00,
2013-05-07 10:27:00,73.0,62.2,30.06,NNW,331,5.0,8.0,69,0.00,,,0.00,VWS V14.01,2013-05-07 14:27:00,
2013-05-07 10:32:00,73.0,61.8,30.06,WSW,240,2.0,3.0,68,0.00,,,0.00,VWS V14.01,2013-05-07 14:32:00,
2013-05-07 10:37:00,73.4,62.2,30.06,WSW,243,5.0,8.0,68,0.00,,,0.00,VWS V14.01,2013-05-07 14:37:00,
2013-05-07 10:42:00,73.6,62.0,30.06,West,267,1.0,8.0,67,0.00,,,0.00,VWS V14.01,2013-05-07 14:42:00,
2013-05-07 10:47:00,74.0,62.8,30.06,WSW,252,7.0,10.0,68,0.00,,,0.00,VWS V14.01,2013-05-07 14:47:00,
2013-05-07 10:52:00,74.1,62.5,30.06,SW,236,9.0,11.0,67,0.00,,,0.00,VWS V14.01,2013-05-07 14:52:00,
2013-05-07 10:56:00,74.0,61.9,30.06,WSW,240,5.0,11.0,66,0.00,,,0.00,VWS V14.01,2013-05-07 14:56:00,
2013-05-07 11:02:00,74.3,62.2,30.06,WSW,250,6.0,8.0,66,0.00,,,0.00,VWS V14.01,2013-05-07 15:02:00,
2013-05-07 11:07:00,75.1,63.0,30.06,West,275,2.0,8.0,66,0.00,,,0.00,VWS V14.01,2013-05-07 15:07:00,
2013-05-07 11:12:00,74.9,61.9,30.06,WSW,242,7.0,9.0,64,0.00,,,0.00,VWS V14.01,2013-05-07 15:12:00,
2013-05-07 11:17:00,75.3,61.8,30.07,WSW,244,5.0,8.0,63,0.00,,,0.00,VWS V14.01,2013-05-07 15:17:00,
2013-05-07 11:21:00,75.5,62.5,30.06,SW,234,6.0,8.0,64,0.00,,,0.00,VWS V14.01,2013-05-07 15:21:00,
2013-05-07 11:26:00,75.9,62.9,30.07,WSW,241,7.0,9.0,64,0.00,,,0.00,VWS V14.01,2013-05-07 15:26:00,
2013-05-07 11:31:00,75.6,62.1,30.06,West,269,8.0,9.0,63,0.00,,,0.00,VWS V14.01,2013-05-07 15:31:00,
2013-05-07 11:36:00,75.8,61.9,30.06,West,260,6.0,9.0,62,0.00,,,0.00,VWS V14.01,2013-05-07 15:36:00,
2013-05-07 11:41:00,76.2,62.2,30.06,WSW,254,6.0,9.0,62,0.00,,,0.00,VWS V14.01,2013-05-07 15:41:00,
2013-05-07 11:46:00,77.1,62.2,30.06,SSW,208,6.0,8.0,60,0.00,,,0.00,VWS V14.01,2013-05-07 15:46:00,
2013-05-07 11:51:00,76.5,61.1,30.06,West,259,6.0,11.0,59,0.00,,,0.00,VWS V14.01,2013-05-07 15:51:00,
2013-05-07 11:56:00,76.8,61.9,30.06,WSW,254,10.0,13.0,60,0.00,,,0.00,VWS V14.01,2013-05-07 15:56:00,
2013-05-07 12:01:00,77.1,63.1,30.06,West,271,3.0,8.0,62,0.00,,,0.00,VWS V14.01,2013-05-07 16:01:00,
2013-05-07 12:06:00,77.1,61.7,30.05,West,262,4.0,12.0,59,0.00,,,0.00,VWS V14.01,2013-05-07 16:06:00,
2013-05-07 12:11:00,77.4,61.0,30.05,NW,310,4.0,12.0,57,0.00,,,0.00,VWS V14.01,2013-05-07 16:11:00,
2013-05-07 12:16:00,77.7,62.2,30.05,SW,223,7.0,9.0,59,0.00,,,0.00,VWS V14.01,2013-05-07 16:16:00,
2013-05-07 12:21:00,77.9,62.0,30.05,WSW,240,3.0,9.0,58,0.00,,,0.00,VWS V14.01,2013-05-07 16:21:00,
2013-05-07 12:26:00,77.9,61.5,30.05,WSW,250,7.0,13.0,57,0.00,,,0.00,VWS V14.01,2013-05-07 16:26:00,
2013-05-07 12:31:00,77.9,62.0,30.05,WSW,255,6.0,12.0,58,0.00,,,0.00,VWS V14.01,2013-05-07 16:31:00,
2013-05-07 12:36:00,77.9,62.0,30.05,WSW,247,10.0,12.0,58,0.00,,,0.00,VWS V14.01,2013-05-07 16:36:00,
2013-05-07 12:41:00,77.2,60.8,30.05,WSW,242,3.0,13.0,57,0.00,,,0.00,VWS V14.01,2013-05-07 16:41:00,
2013-05-07 12:46:00,77.9,62.0,30.04,WSW,238,9.0,9.0,58,0.00,,,0.00,VWS V14.01,2013-05-07 16:46:00,
2013-05-07 12:51:00,78.8,61.8,30.05,WSW,244,9.0,13.0,56,0.00,,,0.00,VWS V14.01,2013-05-07 16:51:00,
2013-05-07 12:56:00,78.2,60.7,30.04,WSW,257,4.0,13.0,55,0.00,,,0.00,VWS V14.01,2013-05-07 16:56:00,
2013-05-07 13:01:00,78.7,61.7,30.04,SW,233,6.0,13.0,56,0.00,,,0.00,VWS V14.01,2013-05-07 17:01:00,
2013-05-07 13:06:00,79.2,63.2,30.04,SW,224,3.0,13.0,58,0.00,,,0.00,VWS V14.01,2013-05-07 17:06:00,
2013-05-07 13:11:00,79.1,63.1,30.04,West,259,7.0,14.0,58,0.00,,,0.00,VWS V14.01,2013-05-07 17:11:00,
2013-05-07 13:16:00,79.2,62.2,30.04,WSW,248,4.0,12.0,56,0.00,,,0.00,VWS V14.01,2013-05-07 17:16:00,
2013-05-07 13:21:00,78.9,61.4,30.04,West,260,5.0,12.0,55,0.00,,,0.00,VWS V14.01,2013-05-07 17:21:00,
2013-05-07 13:26:00,79.5,62.5,30.04,WSW,257,11.0,14.0,56,0.00,,,0.00,VWS V14.01,2013-05-07 17:26:00,
2013-05-07 13:31:00,79.6,62.0,30.03,West,262,8.0,12.0,55,0.00,,,0.00,VWS V14.01,2013-05-07 17:31:00,
2013-05-07 13:36:00,79.5,60.9,30.03,WSW,248,10.0,13.0,53,0.00,,,0.00,VWS V14.01,2013-05-07 17:36:00,
2013-05-07 13:41:00,79.7,62.1,30.03,SW,232,7.0,15.0,55,0.00,,,0.00,VWS V14.01,2013-05-07 17:41:00,
2013-05-07 13:46:00,80.1,62.0,30.03,West,263,10.0,16.0,54,0.00,,,0.00,VWS V14.01,2013-05-07 17:46:00,
2013-05-07 13:51:00,80.4,62.2,30.03,SSW,192,6.0,16.0,54,0.00,,,0.00,VWS V14.01,2013-05-07 17:51:00,
2013-05-07 13:56:00,80.3,61.1,30.03,WNW,290,6.0,16.0,52,0.00,,,0.00,VWS V14.01,2013-05-07 17:56:00,
2013-05-07 14:01:00,80.1,62.5,30.03,WSW,250,10.0,13.0,55,0.00,,,0.00,VWS V14.01,2013-05-07 18:01:00,
2013-05-07 14:06:00,80.0,61.9,30.02,SW,229,7.0,13.0,54,0.00,,,0.00,VWS V14.01,2013-05-07 18:06:00,
2013-05-07 14:11:00,80.5,61.3,30.02,WSW,251,7.0,13.0,52,0.00,,,0.00,VWS V14.01,2013-05-07 18:11:00,
2013-05-07 14:16:00,80.1,60.4,30.02,WSW,249,3.0,11.0,51,0.00,,,0.00,VWS V14.01,2013-05-07 18:16:00,
2013-05-07 14:21:00,80.9,60.5,30.02,SW,218,7.0,12.0,50,0.00,,,0.00,VWS V14.01,2013-05-07 18:21:00,
2013-05-07 14:26:00,81.3,60.3,30.01,WSW,239,7.0,13.0,49,0.00,,,0.00,VWS V14.01,2013-05-07 18:26:00,
2013-05-07 14:31:00,81.0,60.6,30.01,WSW,258,4.0,9.0,50,0.00,,,0.00,VWS V14.01,2013-05-07 18:31:00,
2013-05-07 14:36:00,81.3,60.9,30.01,WSW,246,9.0,17.0,50,0.00,,,0.00,VWS V14.01,2013-05-07 18:36:00,
2013-05-07 14:41:00,81.4,60.4,30.01,West,271,8.0,17.0,49,0.00,,,0.00,VWS V14.01,2013-05-07 18:41:00,
2013-05-07 14:46:00,81.1,59.6,30.01,SW,227,5.0,13.0,48,0.00,,,0.00,VWS V14.01,2013-05-07 18:46:00,
2013-05-07 14:51:00,81.9,60.3,30.01,WSW,245,12.0,14.0,48,0.00,,,0.00,VWS V14.01,2013-05-07 18:51:00,
2013-05-07 14:56:00,81.5,59.9,30.00,WSW,244,4.0,16.0,48,0.00,,,0.00,VWS V14.01,2013-05-07 18:56:00,
2013-05-07 15:01:00,82.1,59.3,30.00,SW,222,6.0,14.0,46,0.00,,,0.00,VWS V14.01,2013-05-07 19:01:00,
2013-05-07 15:06:00,81.6,59.4,30.00,SW,236,5.0,14.0,47,0.00,,,0.00,VWS V14.01,2013-05-07 19:06:00,
2013-05-07 15:11:00,82.6,60.3,30.00,SW,227,8.0,14.0,47,0.00,,,0.00,VWS V14.01,2013-05-07 19:11:00,
2013-05-07 15:16:00,82.6,60.9,30.00,West,269,8.0,9.0,48,0.00,,,0.00,VWS V14.01,2013-05-07 19:16:00,
2013-05-07 15:21:00,82.6,60.9,30.00,WSW,240,13.0,13.0,48,0.00,,,0.00,VWS V14.01,2013-05-07 19:21:00,
2013-05-07 15:26:00,82.1,59.3,30.00,SSW,208,7.0,14.0,46,0.00,,,0.00,VWS V14.01,2013-05-07 19:26:00,
2013-05-07 15:31:00,82.9,60.6,30.00,SW,225,11.0,12.0,47,0.00,,,0.00,VWS V14.01,2013-05-07 19:31:00,
2013-05-07 15:36:00,82.3,58.9,29.99,SW,232,6.0,14.0,45,0.00,,,0.00,VWS V14.01,2013-05-07 19:36:00,
2013-05-07 15:41:00,82.9,61.2,29.99,West,271,6.0,14.0,48,0.00,,,0.00,VWS V14.01,2013-05-07 19:41:00,
2013-05-07 15:46:00,82.9,60.6,29.99,WSW,244,6.0,8.0,47,0.00,,,0.00,VWS V14.01,2013-05-07 19:46:00,
2013-05-07 15:51:00,83.7,61.3,29.99,SW,225,10.0,11.0,47,0.00,,,0.00,VWS V14.01,2013-05-07 19:51:00,
2013-05-07 15:56:00,82.6,59.1,29.99,WSW,253,6.0,16.0,45,0.00,,,0.00,VWS V14.01,2013-05-07 19:56:00,
2013-05-07 16:01:00,82.9,59.4,29.99,SSW,203,8.0,10.0,45,0.00,,,0.00,VWS V14.01,2013-05-07 20:01:00,
2013-05-07 16:06:00,83.2,57.1,29.99,SW,227,9.0,19.0,41,0.00,,,0.00,VWS V14.01,2013-05-07 20:06:00,
2013-05-07 16:11:00,83.0,58.2,29.99,SSW,196,7.0,19.0,43,0.00,,,0.00,VWS V14.01,2013-05-07 20:11:00,
2013-05-07 16:16:00,83.2,57.8,29.99,WSW,239,11.0,12.0,42,0.00,,,0.00,VWS V14.01,2013-05-07 20:16:00,
2013-05-07 16:21:00,83.4,58.6,29.99,WSW,243,8.0,14.0,43,0.00,,,0.00,VWS V14.01,2013-05-07 20:21:00,
2013-05-07 16:26:00,83.3,59.1,29.99,WSW,240,14.0,14.0,44,0.00,,,0.00,VWS V14.01,2013-05-07 20:26:00,
2013-05-07 16:31:00,83.0,59.5,29.98,WSW,238,4.0,7.0,45,0.00,,,0.00,VWS V14.01,2013-05-07 20:31:00,
2013-05-07 16:36:00,83.2,58.4,29.98,WSW,254,7.0,11.0,43,0.00,,,0.00,VWS V14.01,2013-05-07 20:36:00,
2013-05-07 16:41:00,82.9,58.1,29.98,WNW,291,2.0,11.0,43,0.00,,,0.00,VWS V14.01,2013-05-07 20:41:00,
2013-05-07 16:46:00,83.2,58.4,29.98,WSW,252,10.0,16.0,43,0.00,,,0.00,VWS V14.01,2013-05-07 20:46:00,
2013-05-07 16:51:00,83.3,58.5,29.98,WSW,240,5.0,16.0,43,0.00,,,0.00,VWS V14.01,2013-05-07 20:51:00,
2013-05-07 16:56:00,83.9,59.7,29.98,West,275,11.0,16.0,44,0.00,,,0.00,VWS V14.01,2013-05-07 20:56:00,
2013-05-07 17:01:00,82.7,57.3,29.98,WSW,238,8.0,9.0,42,0.00,,,0.00,VWS V14.01,2013-05-07 21:01:00,
2013-05-07 17:06:00,83.1,57.7,29.98,WSW,245,6.0,10.0,42,0.00,,,0.00,VWS V14.01,2013-05-07 21:06:00,
2013-05-07 17:11:00,83.5,58.0,29.98,SSW,197,4.0,12.0,42,0.00,,,0.00,VWS V14.01,2013-05-07 21:11:00,
2013-05-07 17:16:00,83.9,58.4,29.98,WSW,248,8.0,13.0,42,0.00,,,0.00,VWS V14.01,2013-05-07 21:16:00,
2013-05-07 17:21:00,83.4,59.2,29.98,WSW,238,5.0,13.0,44,0.00,,,0.00,VWS V14.01,2013-05-07 21:21:00,
2013-05-07 17:26:00,83.6,58.8,29.98,SW,231,3.0,13.0,43,0.00,,,0.00,VWS V14.01,2013-05-07 21:26:00,
2013-05-07 17:31:00,84.2,58.0,29.98,SW,221,5.0,8.0,41,0.00,,,0.00,VWS V14.01,2013-05-07 21:31:00,
2013-05-07 17:36:00,84.0,57.8,29.98,SW,236,11.0,13.0,41,0.00,,,0.00,VWS V14.01,2013-05-07 21:36:00,
2013-05-07 17:41:00,84.1,58.5,29.98,SW,228,11.0,14.0,42,0.00,,,0.00,VWS V14.01,2013-05-07 21:41:00,
2013-05-07 17:46:00,84.0,59.8,29.98,WSW,243,4.0,8.0,44,0.00,,,0.00,VWS V14.01,2013-05-07 21:46:00,
2013-05-07 17:51:00,83.5,58.0,29.98,SW,223,6.0,11.0,42,0.00,,,0.00,VWS V14.01,2013-05-07 21:51:00,
2013-05-07 17:56:00,83.1,59.0,29.98,West,281,4.0,11.0,44,0.00,,,0.00,VWS V14.01,2013-05-07 21:56:00,
2013-05-07 18:01:00,83.0,58.2,29.98,WSW,252,5.0,8.0,43,0.00,,,0.00,VWS V14.01,2013-05-07 22:01:00,
2013-05-07 18:06:00,83.1,60.8,29.98,WNW,287,5.0,10.0,47,0.00,,,0.00,VWS V14.01,2013-05-07 22:06:00,
2013-05-07 18:11:00,83.2,58.4,29.98,West,262,7.0,11.0,43,0.00,,,0.00,VWS V14.01,2013-05-07 22:11:00,
2013-05-07 18:16:00,83.3,59.1,29.98,WSW,255,7.0,8.0,44,0.00,,,0.00,VWS V14.01,2013-05-07 22:16:00,
2013-05-07 18:21:00,83.6,59.4,29.98,SW,236,9.0,11.0,44,0.00,,,0.00,VWS V14.01,2013-05-07 22:21:00,
2013-05-07 18:26:00,83.0,58.9,29.98,WSW,248,12.0,12.0,44,0.00,,,0.00,VWS V14.01,2013-05-07 22:26:00,
2013-05-07 18:31:00,82.2,58.8,29.98,West,265,5.0,12.0,45,0.00,,,0.00,VWS V14.01,2013-05-07 22:31:00,
2013-05-07 18:36:00,82.5,59.0,29.98,WSW,240,5.0,12.0,45,0.00,,,0.00,VWS V14.01,2013-05-07 22:36:00,
2013-05-07 18:41:00,83.0,59.5,29.98,NW,314,4.0,12.0,45,0.00,,,0.00,VWS V14.01,2013-05-07 22:41:00,
2013-05-07 18:46:00,82.8,58.7,29.98,WSW,254,4.0,6.0,44,0.00,,,0.00,VWS V14.01,2013-05-07 22:46:00,
2013-05-07 18:51:00,82.6,59.1,29.98,SW,223,9.0,11.0,45,0.00,,,0.00,VWS V14.01,2013-05-07 22:51:00,
2013-05-07 18:56:00,82.2,58.8,29.98,WSW,248,5.0,12.0,45,0.00,,,0.00,VWS V14.01,2013-05-07 22:56:00,
2013-05-07 19:01:00,82.7,59.2,29.98,WNW,294,5.0,8.0,45,0.00,,,0.00,VWS V14.01,2013-05-07 23:01:00,
2013-05-07 19:06:00,82.5,59.0,29.98,WSW,254,6.0,9.0,45,0.00,,,0.00,VWS V14.01,2013-05-07 23:06:00,
2013-05-07 19:11:00,81.9,58.5,29.99,WSW,239,8.0,13.0,45,0.00,,,0.00,VWS V14.01,2013-05-07 23:11:00,
2013-05-07 19:16:00,81.5,58.8,29.99,West,263,8.0,12.0,46,0.00,,,0.00,VWS V14.01,2013-05-07 23:16:00,
2013-05-07 19:21:00,81.4,59.3,29.99,West,271,7.0,12.0,47,0.00,,,0.00,VWS V14.01,2013-05-07 23:21:00,
2013-05-07 19:26:00,80.8,58.7,29.99,West,268,7.0,12.0,47,0.00,,,0.00,VWS V14.01,2013-05-07 23:26:00,
2013-05-07 19:31:00,80.4,58.9,30.00,SW,229,3.0,8.0,48,0.00,,,0.00,VWS V14.01,2013-05-07 23:31:00,
2013-05-07 19:36:00,79.9,59.6,30.00,WSW,239,4.0,8.0,50,0.00,,,0.00,VWS V14.01,2013-05-07 23:36:00,
2013-05-07 19:41:00,79.4,59.2,30.00,WSW,240,5.0,9.0,50,0.00,,,0.00,VWS V14.01,2013-05-07 23:41:00,
2013-05-07 19:46:00,79.0,59.9,30.00,West,281,4.0,8.0,52,0.00,,,0.00,VWS V14.01,2013-05-07 23:46:00,
2013-05-07 19:51:00,78.7,59.6,30.00,NW,312,6.0,9.0,52,0.00,,,0.00,VWS V14.01,2013-05-07 23:51:00,
2013-05-07 19:56:00,78.2,59.7,30.01,WNW,285,5.0,9.0,53,0.00,,,0.00,VWS V14.01,2013-05-07 23:56:00,
2013-05-07 20:01:00,77.8,59.3,30.01,West,281,5.0,8.0,53,0.00,,,0.00,VWS V14.01,2013-05-08 00:01:00,